Location: Monrovia
(34.7865°N, 86.7139°W)
Time: 21:42:59
(UTC+00:00)

Nadezhda 4 Rocket - Pass Details

Date: 14 July 2020
Orbit: 951 x 991 km, 82.9° (Epoch: 08 August)

Event Time Altitude Azimuth Distance (km) Brightness Sun altitude
Rises 10:07:12 0° 345° (NNW) 3,709 7.3 -7.5°
Reaches altitude 10° 10:09:51 10° 339° (NNW) 2,758 6.5 -7.0°
Maximum altitude 10:15:44 42° 271° (W) 1,375 4.5 -6.0°
Drops below altitude 10° 10:21:36 10° 202° (SSW) 2,738 5.9 -5.0°
Sets 10:24:14 0° 195° (SSW) 3,679 6.6 -4.5°
